Location: Unspecified
(35.6961°N, 0.0000°E)
Time: 17:26:01
(UTC+00:00)

Explorer 11/Cluster Stage 4 - Pass Details

Date: 27 May 2019
Orbit: 467 x 1260 km, 28.8° (Epoch: 17 June)

Event Time Altitude Azimuth Distance (km) Brightness Sun altitude
Rises 23:04:31 0° 210° (SSW) 4,090 - -31.6°
Reaches altitude 10° 23:08:46 10° 191° (S) 3,017 - -31.8°
Maximum altitude 23:13:01 16° 156° (SSE) 2,448 - -32.0°
Drops below altitude 10° 23:16:54 10° 121° (ESE) 2,716 - -32.1°
Sets 23:20:25 0° 100° (E) 3,497 - -32.3°
